Theta_e
309 311 313 316 318 324 325 323 329 331 338 334 327 341 348 348 349 347 345 347 347 345 347 348 346 348 347 345 346 344 342 341 330 331 328 326 323 320 321 320 319 318 315
308 309 310 313 317 319 326 326 327 327 339 336 330 343 347 348 348 347 344 348 347 346 344 347 345 347 347 347 347 342 343 345 331 322 323 323 320 320 322 320 319 319 315
307 307 308 311 315 317 319 327 327 328 335 341 336 336 340 345 346 348 347 346 345 347 346 344 346 347 344 345 346 346 336 332 329 322 321 323 322 320 321 321 319 317 315
304 305 307 309 312 316 319 325 326 327 331 337 334 335 333 335 335 345 346 345 346 344 347 345 346 347 345 345 344 342 332 328 325 323 321 320 320 321 320 317 314 313 310
303 304 305 308 311 315 318 321 327 329 331 336 331 334 333 333 332 333 338 341 342 344 345 347 345 345 337 341 344 339 332 329 326 323 321 320 318 316 316 317 316 312 311
301 302 304 307 310 313 316 320 327 328 331 334 333 329 332 333 316 315 320 326 336 342 343 345 346 334 330 326 325 326 331 330 326 323 321 317 316 316 317 316 316 311 307
300 302 304 306 308 311 316 319 327 326 330 332 328 329 327 329 311 312 315 325 327 341 344 345 345 345 335 338 320 321 321 317 323 326 321 317 316 317 317 315 314 314 313
299 301 303 305 306 310 314 315 321 329 327 332 331 330 332 328 309 305 313 326 334 342 346 347 346 338 336 329 327 325 321 322 322 322 322 318 318 320 319 316 315 317 319
298 299 301 302 305 307 309 313 319 327 324 330 331 328 326 326 306 308 312 328 334 343 346 348 342 337 311 311 323 318 314 313 311 311 310 307 307 308 315 316 318 315 312
297 298 300 302 303 305 308 313 315 328 325 331 333 329 322 323 307 305 309 321 340 342 344 337 321 324 306 309 321 316 313 313 315 313 310 306 309 311 311 319 318 316 313
298 299 300 301 302 306 308 313 316 325 324 328 334 329 325 324 319 310 311 321 341 340 334 332 327 305 304 305 311 318 315 314 313 316 315 315 316 315 317 320 322 319 315
297 299 300 301 303 307 309 315 316 323 324 330 332 332 330 324 312 305 305 311 322 333 331 332 320 302 302 301 310 301 302 309 314 314 313 313 314 315 318 321 315 316 319
297 298 301 308 306 308 310 313 319 324 325 328 330 329 323 323 320 306 308 307 310 329 332 322 301 298 298 301 299 301 305 313 312 311 311 312 314 316 318 314 314 314 314
296 297 301 304 310 310 316 318 322 321 324 325 326 327 324 322 320 318 316 315 311 314 308 309 305 305 307 304 303 308 314 313 313 311 311 313 316 317 314 313 310 309 309
297 297 300 303 306 311 309 308 310 302 305 312 313 316 324 321 320 312 314 321 321 310 308 308 309 311 306 306 308 312 314 314 313 313 313 313 313 313 313 312 308 308 307
296 296 297 301 303 306 308 311 293 295 293 293 293 298 318 308 299 299 299 298 298 300 309 308 309 308 308 307 308 310 311 311 313 313 313 312 311 310 310 308 307 307 306
296 295 297 300 301 302 304 305 305 305 294 293 294 293 293 300 296 296 295 296 296 303 309 308 307 307 308 308 309 309 310 311 313 312 312 311 310 310 308 306 306 306 305
297 295 297 299 300 301 301 302 303 303 304 307 295 293 291 292 292 293 294 299 307 308 310 308 307 308 308 308 308 309 310 311 311 311 310 310 310 309 309 307 306 305 305
297 296 297 298 298 298 299 299 298 298 298 300 303 300 294 290 290 292 295 309 310 309 309 309 309 309 310 310 310 310 311 310 310 308 308 308 309 309 309 307 305 298 300
297 294 295 297 297 296 296 295 295 295 295 295 296 297 301 300 299 299 304 306 307 307 308 308 308 309 309 309 310 311 310 308 308 307 307 308 309 310 310 307 306 303 304
296 295 290 294 293 293 293 292 294 293 293 293 294 293 286 299 299 300 303 304 305 306 307 306 307 307 308 310 311 310 309 307 305 306 307 307 307 308 308 306 305 305 301
295 295 294 292 291 290 290 290 291 291 290 290 292 293 289 296 297 297 299 301 304 306 307 307 307 308 309 310 310 308 307 305 305 304 306 305 306 304 304 303 303 300 297
295 294 294 293 292 290 291 290 288 289 288 288 289 291 292 293 294 295 296 298 300 303 304 305 305 305 307 307 308 307 305 305 305 305 304 304 304 303 302 302 301 298 298
296 296 295 294 293 292 291 289 289 288 289 288 288 288 290 291 293 294 295 297 298 299 301 302 303 303 304 305 305 306 305 306 307 306 305 304 302 299 302 302 300 299 299
297 296 295 294 293 292 292 290 290 289 288 288 288 288 289 290 291 292 293 294 294 295 296 298 299 301 302 303 302 301 292 292 302 296 304 303 302 302 300 300 299 299 298
298 297 296 296 295 294 293 292 291 291 289 288 288 288 288 289 291 292 292 292 292 293 294 294 294 295 295 294 293 289 289 289 294 291 302 302 300 299 299 299 298 297 297
Wind_Speed
19 20 20 16 16 11 9 11 9 13 16 16 8 34 23 21 21 18 16 20 18 16 13 13 11 7 4 3 4 3 4 4 9 6 10 11 9 10 6 8 8 7 7
18 19 20 19 17 15 9 9 11 7 12 13 16 19 28 24 22 20 20 19 17 17 16 12 13 8 6 4 2 6 4 4 14 16 10 8 10 8 6 7 7 8 8
18 19 20 18 17 15 16 7 9 8 10 13 12 1 12 16 20 19 19 14 18 17 17 15 13 12 9 5 3 4 8 10 13 14 10 9 8 7 6 4 7 9 8
19 19 20 18 19 15 15 11 7 7 9 7 9 10 9 7 5 10 15 14 15 15 13 15 11 15 13 10 6 9 10 12 13 11 11 10 9 7 6 6 8 7 8
18 19 19 19 19 17 15 14 7 7 7 7 6 7 11 7 2 3 3 9 9 12 13 13 14 12 14 11 8 11 13 11 10 11 10 10 10 9 11 7 8 8 6
19 19 19 19 19 18 14 14 6 7 6 7 10 10 14 11 16 8 6 6 12 14 16 15 13 12 12 16 12 16 15 14 12 11 10 13 13 11 8 10 8 8 6
19 19 18 18 19 19 15 13 7 6 7 4 9 12 13 12 15 18 14 10 15 20 15 14 12 10 11 10 13 18 14 9 14 17 17 15 14 15 12 11 6 9 7
17 19 18 18 18 18 16 14 14 3 5 4 10 10 9 9 11 1 19 15 17 22 15 14 12 11 11 14 14 11 7 6 7 6 12 14 12 14 13 10 9 8 3
17 18 17 17 18 17 18 14 12 5 5 7 10 12 12 13 17 14 9 21 23 23 14 12 12 13 17 19 16 13 12 5 5 13 11 12 16 14 10 9 7 8 4
17 19 18 17 17 17 16 15 11 8 3 7 7 11 15 11 13 20 23 10 18 14 12 11 18 16 19 22 16 15 13 9 11 9 7 9 13 12 14 6 7 8 6
18 18 18 16 15 16 15 13 12 12 6 5 3 15 13 14 15 22 19 15 14 10 9 10 9 25 21 18 18 16 16 13 12 11 9 8 8 8 6 3 5 3 4
18 17 17 16 12 11 12 13 11 12 7 2 5 4 14 9 9 2 14 20 8 9 9 8 10 19 21 15 14 17 20 15 9 8 8 8 9 8 6 5 6 6 4
17 17 16 15 10 10 11 9 10 7 4 2 4 9 10 9 11 3 13 5 12 10 6 7 17 16 17 11 20 25 20 12 10 9 9 8 8 8 9 9 9 10 9
17 17 16 14 6 8 6 5 5 4 6 6 8 6 8 4 7 7 5 2 6 11 17 11 12 13 10 11 15 15 11 11 11 10 11 10 9 9 9 8 8 7 9
14 14 13 11 12 5 4 5 6 6 4 6 7 6 3 4 2 5 6 6 7 13 14 10 11 11 9 10 10 10 10 10 11 11 11 10 11 11 9 9 8 7 9
12 10 10 9 8 9 9 5 10 8 6 13 7 5 3 6 11 11 10 17 22 20 8 11 10 11 12 11 12 9 7 10 6 9 11 11 11 11 10 9 8 8 10
11 13 9 10 9 9 8 8 10 5 6 16 16 15 15 8 10 14 16 19 16 11 10 10 11 10 10 10 10 10 10 9 8 7 11 11 11 11 13 10 10 9 9
10 16 10 9 8 9 8 9 8 9 9 8 12 14 15 10 4 13 18 11 5 6 9 10 10 11 11 11 10 8 8 8 7 10 10 12 11 12 12 11 10 10 10
9 9 9 8 8 9 8 8 8 8 8 8 7 6 7 11 8 9 6 6 7 6 7 8 9 11 10 10 11 10 10 10 7 10 8 8 7 11 10 9 8 10 12
9 13 10 8 8 8 8 8 8 8 7 6 7 7 7 3 2 3 2 4 4 5 6 7 7 8 10 10 11 11 10 8 7 9 9 7 5 10 9 10 9 11 11
6 7 8 8 8 8 7 8 8 7 6 6 6 6 6 3 1 1 1 3 4 6 6 7 7 7 8 8 9 11 11 9 6 7 8 9 7 9 6 7 9 9 11
6 6 6 7 6 7 7 7 7 7 8 8 7 8 11 6 4 4 4 4 4 4 5 7 7 8 9 10 11 12 12 11 12 7 6 5 5 4 6 9 10 11 12
6 6 7 6 6 6 7 7 7 7 8 8 8 8 7 6 5 5 6 6 6 5 5 6 6 6 6 7 8 11 13 13 11 12 9 5 4 4 7 9 11 12 11
5 7 8 6 7 8 8 8 8 10 9 9 8 9 9 8 8 9 8 7 8 8 7 5 6 9 10 9 8 9 10 11 9 11 16 6 5 7 8 8 10 13 11
7 7 7 7 7 8 8 9 9 9 9 9 9 8 9 10 10 9 9 10 10 10 11 9 8 10 11 16 14 14 12 12 9 8 10 10 8 8 7 8 8 9 10
5 7 6 6 7 7 8 8 9 9 9 8 8 9 9 9 9 9 10 11 11 11 12 11 15 19 18 15 17 17 15 12 10 8 5 7 9 7 9 9 14 10 10
Wind_Direction
305 308 308 304 302 290 280 290 288 322 222 219 262 226 196 189 184 180 191 186 184 188 200 192 198 193 207 174 176 150 150 127 134 103 123 119 117 131 143 123 150 138 143
309 309 307 306 305 306 290 299 292 289 252 190 209 244 197 179 183 185 190 182 182 186 193 195 201 197 196 206 197 162 144 115 130 125 132 128 139 141 142 148 161 140 145
311 308 305 303 302 307 311 308 296 296 300 186 186 55 279 172 180 185 183 189 187 188 185 195 187 192 198 195 172 159 103 115 126 133 137 145 137 147 149 170 112 124 127
310 308 306 307 306 304 298 298 284 277 304 263 176 198 216 66 8 204 193 189 189 193 187 187 190 188 188 189 173 120 119 120 133 133 139 151 150 154 153 150 133 134 138
308 305 306 306 301 302 305 304 293 284 278 228 151 189 187 201 171 299 284 214 208 188 194 193 196 187 177 176 170 138 136 137 146 141 142 152 161 166 177 165 152 149 159
305 305 305 303 300 299 294 292 273 289 297 192 195 175 188 178 161 178 204 262 295 207 197 195 197 178 162 158 149 141 157 149 158 150 159 172 163 171 168 164 165 153 172
304 303 303 304 303 298 296 296 274 288 302 186 177 182 165 172 176 185 200 219 240 235 193 191 199 184 150 157 152 151 163 168 174 165 170 174 163 173 166 165 164 172 187
304 306 305 303 302 303 299 300 305 287 291 242 193 191 180 184 104 257 228 226 250 223 196 187 187 146 140 139 129 125 93 103 146 154 174 162 158 163 170 167 163 183 142
306 301 305 306 304 301 309 293 299 275 295 295 193 179 176 186 147 178 219 224 230 206 188 175 139 141 135 130 130 124 106 78 41 116 124 131 134 142 153 143 173 148 139
309 306 299 295 289 289 292 296 301 281 264 282 171 187 174 190 215 170 200 242 217 174 168 146 143 140 145 138 139 139 135 154 132 119 120 116 140 152 156 166 164 165 162
306 301 295 285 278 278 278 285 288 287 254 246 133 166 172 197 213 197 195 228 215 164 146 141 140 144 149 144 147 161 157 150 137 134 151 138 146 153 163 165 174 186 160
309 304 296 275 262 264 274 283 271 272 277 244 114 111 181 198 320 295 204 231 168 147 142 137 138 155 149 139 147 126 126 126 135 146 150 144 156 155 153 113 91 73 100
319 318 319 317 254 252 249 263 263 252 276 226 129 95 97 128 120 255 211 213 151 134 131 145 133 131 125 110 136 134 137 136 145 157 152 153 159 150 115 107 90 88 81
328 327 324 330 276 262 272 261 255 350 4 7 39 67 88 99 121 151 151 176 122 95 103 113 135 134 126 122 133 143 149 154 168 161 154 158 151 140 127 124 119 115 108
331 329 333 341 351 1 89 13 27 51 9 16 24 344 56 115 110 146 157 153 125 116 109 117 137 141 133 145 157 172 158 171 167 165 160 157 146 140 139 137 135 135 125
337 342 333 344 356 3 360 19 80 98 110 80 68 40 3 73 126 136 127 119 128 136 117 141 147 150 153 159 166 163 159 155 158 160 157 149 151 147 143 145 145 143 134
346 342 339 355 359 6 8 9 359 51 68 67 62 24 12 133 142 127 129 139 140 128 134 147 144 152 155 165 167 165 165 168 146 167 153 152 156 149 147 158 159 144 146
354 348 341 1 5 4 5 13 9 10 356 358 64 53 16 17 66 123 127 115 126 109 145 145 155 156 165 162 163 159 166 164 162 162 164 154 162 153 156 166 163 155 148
1 358 351 9 11 10 14 18 19 13 359 352 356 39 62 40 60 104 100 146 151 130 139 154 161 159 172 172 166 158 158 173 168 141 147 152 169 154 159 161 165 150 140
2 4 7 15 17 19 17 17 17 13 12 8 355 347 351 346 56 163 87 130 118 128 142 148 160 157 163 166 160 154 160 155 150 149 142 153 175 160 162 170 152 144 144
1 7 5 19 20 18 17 11 6 18 18 12 9 358 320 330 75 110 82 120 129 136 136 137 148 148 156 154 157 154 148 143 122 138 160 157 159 169 156 147 137 139 111
7 12 22 32 25 25 17 14 12 21 14 11 7 5 7 31 27 47 54 63 76 103 127 142 150 160 166 165 158 149 146 141 131 111 114 101 95 122 124 131 131 113 123
15 14 30 36 28 23 32 33 26 26 28 26 16 14 18 32 37 47 59 62 63 71 83 104 119 120 131 135 152 147 145 141 143 116 101 97 103 120 132 137 119 130 133
20 17 32 39 36 38 42 38 35 33 35 32 26 23 19 27 38 47 52 57 64 66 68 89 104 117 119 116 115 119 117 123 128 117 120 126 124 130 138 121 136 136 139
37 37 33 37 41 44 44 43 39 35 35 31 27 27 32 34 37 38 49 56 58 61 59 64 74 87 94 110 105 105 96 87 111 100 126 121 116 110 122 127 121 114 118
68 68 51 42 46 49 52 49 42 40 36 31 31 34 36 37 39 38 46 56 59 62 71 71 73 75 75 73 79 79 78 77 74 68 101 124 122 116 105 107 118 128 140